Regional Weather Roundup
Issued by NWS Cleveland, OH

Home | Current Version | Previous Version | Graphics & Text | Print | Product List | Glossary On
Versions: 1 2 3 4 5 6 7 8 9 10 11 12 13 14 15 16 17 18 19 20 21 22 23 24 25 26 27 28 29 30 31 32 33 34 35 36 37 38 39 40 41 42 43 44 45 46 47 48 49 50
000
ASUS41 KCLE 202312
RWRCLE
OHIO REGIONAL WEATHER ROUNDUP
NATIONAL WEATHER SERVICE WILMINGTON, OH
700 PM EDT FRI APR 20 2018

NOTE: "FAIR" INDICATES FEW OR NO CLOUDS BELOW 12,000 FEET WITH NO
SIGNIFICANT WEATHER AND/OR OBSTRUCTIONS TO VISIBILITY.

OHZ001>008-015>018-024>027-034-035-043-044-210000-
   NORTHWEST OHIO

CITY           SKY/WX    TMP DP  RH WIND       PRES   REMARKS
DEFIANCE       NOT AVBL
FINDLAY        FAIR      58  18  21 N6        30.42F
TOLEDO EXPRESS FAIR      58  18  21 N9        30.43S
TOLEDO EXEC    FAIR      56  22  26 E7        30.44S
LIMA           FAIR      54  23  30 NE7       30.42F
$$

OHZ009>014-019>023-028>033-038-089-210000-
   NORTHEAST OHIO

CITY           SKY/WX    TMP DP  RH WIND       PRES   REMARKS
CLE-HOPKINS    FAIR      49  22  34 NE7       30.48S
CLE-LAKEFRONT  FAIR      44  25  47 W5        30.46R
CUY CO. ARPT   MOSUNNY   48  21  34 NW9       30.46R
LORAIN-ELYRIA  FAIR      49  18  29 NE12      30.46S
ASHTABULA      FAIR      45  21  38 NW10      30.44F
AKRON-CANTON   FAIR      48  19  31 N9        30.43R
WOOSTER        FAIR      48  20  32 N9        30.44S
MANSFIELD      FAIR      49  18  29 N10       30.44R
YOUNGSTOWN     FAIR      46  21  37 N13       30.41F
$$

OHZ042-051>053-060>062-070>072-077>081-210000-
  SOUTHWEST OHIO

CITY           SKY/WX    TMP DP  RH WIND       PRES   REMARKS
CINC-COVINGTON FAIR      58  22  24 VRB3      30.40S
CINC-LUNKEN    FAIR      59  28  30 N5        30.41S
HAMILTON       FAIR      58  24  27 E7        30.42S
DAYTON         FAIR      56  24  29 NE8       30.42F
WRIGHT-PAT AFB FAIR      57  21  25 NE6       30.41F
DAYTON GENERAL FAIR      58  24  27 NE9       30.40S
WILMINGTON     FAIR      57  29  34 N6        30.40F
$$

OHZ036-037-039>041-045>050-054>059-063>069-073>076-082>088-210000-
  CENTRAL AND SOUTHEAST OHIO

CITY           SKY/WX    TMP DP  RH WIND       PRES   REMARKS
COLUMBUS       FAIR      56  23  27 N8        30.41S
OSU AIRPORT    FAIR      55  25  31 N9        30.41S
BOLTON FIELD   SUNNY     55  25  30 N6        30.42S
RICKENBACK AFB FAIR      55  23  28 N9        30.41S
NEWARK         FAIR      56  24  29 N6        30.40S
MARION         FAIR      52  21  29 N9        30.44R
LANCASTER      FAIR      55  28  35 N8        30.42S
ZANESVILLE     FAIR      55  21  26 N7        30.40S
NEW PHILLY     FAIR      52  16  24 NW12      30.42S
$$




USA.gov is the U.S. government's official web portal to all federal, state and local government web resources and services.